Tracking 23731 objects as of 26-Sep-2021
HD Live streaming from Space Station
objects crossing your sky now

STARLINK-1410

Track STARLINK-1410 now!
10-day predictions
STARLINK-1410 is classified as:


NORAD ID: 45705
Int'l Code: 2020-035BA
Perigee: 552.8 km
Apogee: 556.0 km
Inclination: 53.1 °
Period: 95.6 minutes
Semi major axis: 6925 km
RCS: Unknown
Launch date: June 4, 2020
Source: United States (US)
Launch site: AIR FORCE EASTERN TEST RANGE (AFETR)
aabbcc
Your satellite tracking list
Your tracking list is empty




NASA's NSSDC Master Catalog

Two Line Element Set (TLE):
1 45705U 20035BA  21269.00667524  .00000321  00000-0  40492-4 0  9990
2 45705  53.0557 164.6068 0002298  65.5854 294.5374 15.06394616 73299
Source of the keplerian elements: AFSPC